• In Germany
  • List of Countries
  • For 7 days
  • Water Temperature
  • Satellite Maps
  • Weather Map
  • Weather Widgets
  • user-avatar
    Login

    Hourly Weather Bregenz

    Today, 23 April, Sunday

    Time Temperature Precipitation Wind Pressure Humidity
    00:00 +1°C° 0.3 mm 1 mps 646 mmHg 98%
    01:00 0°C° 0.3 mm 1 mps 646 mmHg 98%
    02:00 0°C° 0.1 mm 1 mps 646 mmHg 98%
    03:00 0°C° 0.1 mm 1 mps 646 mmHg 98%
    04:00 -1°C° 0.1 mm 1 mps 646 mmHg 98%
    05:00 0°C° 0 mm 1 mps 646 mmHg 97%
    06:00 0°C° 0 mm 1 mps 647 mmHg 96%
    07:00 +1°C° 0 mm 1 mps 647 mmHg 95%
    08:00 +2°C° 0 mm 1 mps 647 mmHg 90%
    09:00 +3°C° 0 mm 1 mps 647 mmHg 85%
    10:00 +4°C° 0 mm 1 mps 647 mmHg 81%
    11:00 +4°C° 0 mm 2 mps 647 mmHg 77%
    12:00 +4°C° 0 mm 2 mps 647 mmHg 73%
    13:00 +5°C° 0 mm 2 mps 647 mmHg 70%
    14:00 +5°C° 0 mm 2 mps 647 mmHg 69%
    15:00 +5°C° 0 mm 2 mps 647 mmHg 69%
    16:00 +5°C° 0 mm 2 mps 647 mmHg 68%
    17:00 +3°C° 0 mm 2 mps 647 mmHg 75%
    18:00 +2°C° 0 mm 2 mps 647 mmHg 83%
    19:00 -1°C° 0 mm 2 mps 646 mmHg 90%
    20:00 -2°C° 0 mm 2 mps 646 mmHg 91%
    21:00 -3°C° 0 mm 2 mps 646 mmHg 93%
    22:00 -4°C° 0 mm 2 mps 646 mmHg 95%
    23:00 -5°C° 0 mm 2 mps 646 mmHg 94%

    Tomorrow, 24 April, Monday

    Time Temperature Precipitation Wind Pressure Humidity
    00:00 -5°C° 0 mm 2 mps 646 mmHg 93%
    01:00 -5°C° 0 mm 2 mps 646 mmHg 92%
    02:00 -3°C° 0 mm 1 mps 645 mmHg 91%
    03:00 -3°C° 0 mm 1 mps 645 mmHg 89%
    04:00 -3°C° 0 mm 1 mps 645 mmHg 87%
    05:00 -2°C° 0 mm 1 mps 645 mmHg 83%
    06:00 0°C° 0 mm 1 mps 645 mmHg 80%
    07:00 +1°C° 0 mm 1 mps 645 mmHg 77%
    08:00 +4°C° 0 mm 1 mps 646 mmHg 70%
    09:00 +7°C° 0 mm 1 mps 646 mmHg 64%
    10:00 +10°C° 0 mm 1 mps 647 mmHg 57%
    11:00 +11°C° 0 mm 1 mps 647 mmHg 55%
    12:00 +12°C° 0 mm 1 mps 646 mmHg 52%
    13:00 +13°C° 0 mm 1 mps 646 mmHg 50%
    14:00 +12°C° 0.1 mm 1 mps 646 mmHg 53%
    15:00 +12°C° 0.1 mm 1 mps 645 mmHg 55%
    16:00 +12°C° 0.1 mm 1 mps 645 mmHg 58%
    17:00 +10°C° 0.1 mm 1 mps 644 mmHg 69%
    18:00 +7°C° 0.1 mm 1 mps 643 mmHg 79%
    19:00 +5°C° 0.1 mm 1 mps 642 mmHg 89%
    20:00 +4°C° 0 mm 1 mps 642 mmHg 90%
    21:00 +3°C° 0 mm 2 mps 642 mmHg 91%
    22:00 +3°C° 0 mm 2 mps 642 mmHg 91%
    23:00 +2°C° 0.1 mm 2 mps 642 mmHg 91%

    Day after tomorrow, 25 April, Tuesday

    Time Temperature Precipitation Wind Pressure Humidity
    00:00 +2°C° 0.1 mm 2 mps 641 mmHg 91%
    01:00 +1°C° 0.1 mm 3 mps 641 mmHg 91%
    02:00 +2°C° 0.3 mm 2 mps 641 mmHg 91%
    03:00 +2°C° 0.3 mm 2 mps 641 mmHg 92%
    04:00 +2°C° 0.3 mm 2 mps 640 mmHg 92%
    05:00 +3°C° 0.2 mm 2 mps 640 mmHg 91%
    06:00 +4°C° 0.2 mm 2 mps 640 mmHg 90%
    07:00 +4°C° 0.2 mm 2 mps 641 mmHg 89%
    08:00 +6°C° 0.2 mm 2 mps 641 mmHg 85%
    09:00 +7°C° 0.2 mm 2 mps 641 mmHg 81%
    10:00 +8°C° 0.2 mm 3 mps 641 mmHg 76%
    11:00 +8°C° 0.8 mm 3 mps 641 mmHg 80%
    12:00 +7°C° 0.8 mm 3 mps 640 mmHg 83%
    13:00 +7°C° 0.8 mm 3 mps 640 mmHg 87%
    14:00 +6°C° 1.6 mm 2 mps 640 mmHg 90%
    15:00 +5°C° 1.6 mm 2 mps 640 mmHg 92%
    16:00 +4°C° 1.6 mm 2 mps 640 mmHg 95%
    17:00 +3°C° 1.5 mm 2 mps 640 mmHg 96%
    18:00 +3°C° 1.5 mm 2 mps 640 mmHg 97%
    19:00 +2°C° 1.5 mm 2 mps 640 mmHg 97%
    20:00 +1°C° 1 mm 2 mps 639 mmHg 97%
    21:00 -1°C° 1 mm 2 mps 639 mmHg 97%
    22:00 -1°C° 1 mm 2 mps 639 mmHg 97%
    23:00 -2°C° 1 mm 2 mps 639 mmHg 97%

    26 April, Wednesday

    Time Temperature Precipitation Wind Pressure Humidity
    00:00 -2°C° 1 mm 2 mps 638 mmHg 98%
    01:00 -3°C° 1 mm 2 mps 638 mmHg 98%
    02:00 -3°C° 1 mm 2 mps 638 mmHg 98%
    03:00 -3°C° 1 mm 2 mps 638 mmHg 98%
    04:00 -4°C° 1 mm 2 mps 637 mmHg 98%
    05:00 -4°C° 1.2 mm 2 mps 637 mmHg 98%
    06:00 -4°C° 1.2 mm 2 mps 637 mmHg 98%
    07:00 -4°C° 1.2 mm 2 mps 637 mmHg 98%
    08:00 -3°C° 0.9 mm 2 mps 637 mmHg 98%
    09:00 -3°C° 0.9 mm 2 mps 637 mmHg 98%
    10:00 -4°C° 0.9 mm 3 mps 637 mmHg 98%
    11:00 -4°C° 1.1 mm 3 mps 638 mmHg 98%
    12:00 -4°C° 1.1 mm 3 mps 638 mmHg 98%
    13:00 -4°C° 1.1 mm 3 mps 638 mmHg 98%
    14:00 -4°C° 1.2 mm 3 mps 638 mmHg 98%
    15:00 -3°C° 1.2 mm 2 mps 638 mmHg 98%
    16:00 -3°C° 1.2 mm 2 mps 638 mmHg 98%
    17:00 -4°C° 0.6 mm 2 mps 638 mmHg 98%
    18:00 -4°C° 0.6 mm 2 mps 638 mmHg 98%
    19:00 -4°C° 0.6 mm 2 mps 638 mmHg 99%
    20:00 -3°C° 0.3 mm 1 mps 638 mmHg 98%
    21:00 -3°C° 0.3 mm 1 mps 638 mmHg 98%
    22:00 -4°C° 0.3 mm 1 mps 638 mmHg 98%
    23:00 -4°C° 0.5 mm 1 mps 638 mmHg 98%

    27 April, Thursday

    Time Temperature Precipitation Wind Pressure Humidity
    00:00 -4°C° 0.5 mm 1 mps 638 mmHg 98%
    01:00 -4°C° 0.5 mm 1 mps 638 mmHg 98%
    02:00 -4°C° 0.6 mm 1 mps 638 mmHg 98%
    03:00 -4°C° 0.6 mm 1 mps 638 mmHg 98%
    04:00 -4°C° 0.6 mm 1 mps 638 mmHg 98%
    05:00 -4°C° 0.5 mm 1 mps 638 mmHg 98%
    06:00 -3°C° 0.5 mm 1 mps 639 mmHg 98%
    07:00 -5°C° 0.5 mm 2 mps 639 mmHg 98%
    08:00 -5°C° 0.9 mm 2 mps 639 mmHg 98%
    09:00 -4°C° 0.9 mm 2 mps 639 mmHg 98%
    10:00 -4°C° 0.9 mm 2 mps 640 mmHg 98%
    11:00 -4°C° 0.8 mm 2 mps 640 mmHg 98%
    12:00 -3°C° 0.8 mm 2 mps 640 mmHg 98%
    13:00 -3°C° 0.8 mm 2 mps 640 mmHg 98%
    14:00 -3°C° 0.4 mm 2 mps 640 mmHg 98%
    15:00 -3°C° 0.4 mm 2 mps 640 mmHg 98%
    16:00 -1°C° 0.4 mm 1 mps 641 mmHg 98%
    17:00 -2°C° 0.2 mm 1 mps 641 mmHg 98%
    18:00 -2°C° 0.2 mm 1 mps 641 mmHg 98%
    19:00 -2°C° 0.2 mm 1 mps 641 mmHg 98%
    20:00 -4°C° 0.2 mm 1 mps 641 mmHg 99%
    21:00 -6°C° 0.2 mm 1 mps 641 mmHg 99%
    22:00 -7°C° 0.2 mm 1 mps 641 mmHg 99%
    23:00 -7°C° 0.1 mm 1 mps 641 mmHg 99%

    28 April, Friday

    Time Temperature Precipitation Wind Pressure Humidity
    00:00 -8°C° 0.1 mm 1 mps 641 mmHg 99%
    01:00 -8°C° 0.1 mm 1 mps 641 mmHg 99%
    02:00 -7°C° 0.2 mm 1 mps 642 mmHg 98%
    03:00 -7°C° 0.2 mm 1 mps 642 mmHg 98%
    04:00 -6°C° 0.2 mm 1 mps 642 mmHg 98%
    05:00 -6°C° 0.4 mm 1 mps 643 mmHg 98%
    06:00 -4°C° 0.4 mm 1 mps 643 mmHg 98%
    07:00 -3°C° 0.4 mm 1 mps 643 mmHg 98%
    08:00 -3°C° 0.4 mm 1 mps 644 mmHg 98%
    09:00 -4°C° 0.4 mm 2 mps 644 mmHg 98%
    10:00 -3°C° 0.4 mm 2 mps 644 mmHg 98%
    11:00 -3°C° 0.3 mm 2 mps 644 mmHg 98%
    12:00 -3°C° 0.3 mm 2 mps 644 mmHg 98%
    13:00 -2°C° 0.3 mm 2 mps 644 mmHg 98%
    14:00 -2°C° 0.3 mm 2 mps 644 mmHg 98%
    15:00 -2°C° 0.3 mm 2 mps 644 mmHg 97%
    16:00 -2°C° 0.3 mm 2 mps 644 mmHg 97%
    17:00 -1°C° 0.2 mm 1 mps 644 mmHg 98%
    18:00 -1°C° 0.2 mm 1 mps 644 mmHg 98%
    19:00 -2°C° 0.2 mm 1 mps 644 mmHg 98%
    20:00 -4°C° 0.1 mm 1 mps 644 mmHg 98%
    21:00 -6°C° 0.1 mm 1 mps 644 mmHg 98%
    22:00 -8°C° 0.1 mm 1 mps 644 mmHg 98%
    23:00 -8°C° 0.1 mm 1 mps 644 mmHg 98%
    Show more